Wind_Speed
4 3 3 3 2 1 3 3 3 2 1 1 1 1 2 2 2 2 3 3 3 4 4 5 5 5 4 3 3 3 3 3 2 2 2 2 2 2 2 3 2 2 3 3 4 4 3 4 3
4 4 4 3 3 2 4 4 2 2 2 2 2 1 1 2 2 2 3 3 4 4 5 5 5 5 4 4 3 3 3 3 2 2 2 1 1 0 1 1 1 1 1 2 2 2 2 3 3
5 4 4 4 4 5 5 4 3 3 2 3 2 2 2 3 3 3 4 4 4 4 5 5 5 5 5 4 4 3 3 2 2 2 2 2 1 1 1 0 1 1 1 2 2 2 2 1 2
6 5 5 4 5 5 5 4 4 3 3 3 3 3 3 3 4 4 4 4 4 5 5 5 5 5 5 5 4 3 3 3 3 3 2 2 1 1 1 1 1 2 2 2 2 2 1 1 2
7 6 5 5 6 6 5 5 4 4 4 3 3 3 3 4 5 5 4 5 5 5 5 6 6 5 5 5 5 4 4 4 3 3 2 2 2 2 2 2 2 3 3 3 2 2 2 2 2
7 6 6 7 8 8 7 6 5 4 4 5 4 4 4 4 5 5 6 6 6 6 6 6 6 5 6 5 5 4 4 4 3 3 3 3 2 2 2 2 3 3 4 4 4 3 3 2 2
8 7 8 9 10 10 8 7 6 5 6 6 5 5 4 4 5 6 6 6 6 6 7 7 6 6 6 6 5 5 4 4 4 3 3 3 3 3 3 3 3 4 4 4 4 4 4 4 3
9 9 9 10 10 11 10 9 8 8 7 6 6 6 5 5 6 7 7 7 7 7 7 7 7 7 7 7 6 5 5 5 5 5 4 4 4 4 4 4 4 5 5 5 5 5 6 5 5
9 9 10 10 11 11 10 10 10 9 8 8 7 6 6 6 7 7 8 8 8 8 8 8 8 8 8 8 7 7 6 6 6 6 5 5 5 5 5 5 5 5 6 6 6 6 6 7 7
10 10 11 12 12 11 11 11 10 10 10 8 7 7 7 8 8 8 8 9 9 9 9 9 10 10 9 9 9 8 8 7 7 7 7 6 5 5 6 6 6 6 7 6 6 6 7 7 8
11 12 12 13 13 12 13 12 11 11 11 10 8 8 8 9 9 9 9 10 10 10 11 10 10 11 10 10 10 10 9 9 8 8 7 6 7 7 7 7 7 7 7 7 7 7 7 8 8
13 13 14 14 14 14 14 13 13 12 12 11 10 9 9 9 10 11 11 11 11 11 11 12 11 11 11 11 11 10 10 10 10 9 9 8 8 8 8 8 8 8 8 7 7 7 7 8 9
14 15 15 15 15 15 14 14 14 14 12 13 11 10 10 11 11 12 12 12 11 12 12 13 12 12 12 12 12 12 12 11 11 11 10 9 9 9 10 10 10 9 9 9 9 8 8 8 8
15 15 16 16 16 15 15 14 15 15 14 14 13 12 12 12 12 13 13 13 13 12 13 14 14 13 13 12 13 13 13 13 13 12 11 11 11 11 11 11 11 11 10 10 10 10 9 9 9
15 15 16 17 17 16 16 15 16 16 16 15 15 15 14 13 13 13 14 14 14 14 14 14 14 13 14 14 13 13 14 14 14 14 14 13 13 13 13 12 12 12 12 11 11 11 10 10 10
16 16 16 17 17 17 16 15 16 16 17 17 17 16 16 15 15 15 16 16 16 15 15 15 16 15 14 14 14 14 14 15 15 15 14 14 15 15 14 14 13 13 13 13 12 12 11 11 10
17 17 17 18 18 18 17 17 18 18 17 17 18 18 17 17 17 17 17 17 17 17 16 16 17 16 15 15 15 15 15 16 15 14 15 15 16 16 15 15 15 15 14 13 13 13 13 12 11
18 18 19 19 19 19 19 19 19 19 19 19 19 19 19 18 18 18 18 17 17 17 17 16 16 16 16 16 17 17 16 16 16 15 15 15 15 16 17 17 16 17 15 14 14 13 13 13 13
19 19 19 20 21 20 21 21 20 20 20 19 19 19 20 19 19 19 18 18 17 18 18 17 17 17 17 17 18 18 18 17 16 16 16 16 17 18 19 18 17 17 16 16 15 15 15 14 14
20 21 21 22 22 22 22 22 21 22 21 20 19 20 21 20 19 19 20 19 19 18 19 18 19 19 18 18 19 19 18 17 17 17 17 17 18 19 19 19 19 19 18 17 17 17 16 15 15
21 21 22 22 23 23 23 23 22 22 21 21 21 20 20 20 20 20 20 20 20 20 20 20 19 19 19 19 19 19 18 18 18 18 18 18 18 19 19 19 20 19 19 18 18 17 18 17 17
21 22 22 22 22 22 22 21 21 21 21 21 21 20 20 21 21 21 21 21 21 21 21 21 20 20 19 19 19 19 19 18 18 18 18 18 18 18 18 19 20 19 18 17 17 18 18 18 18
22 22 22 22 22 22 22 21 20 20 20 20 20 21 21 21 21 22 22 22 22 21 21 21 20 19 19 20 20 20 20 19 18 18 18 18 18 18 18 19 19 18 18 17 18 18 18 18 18
22 21 22 22 22 22 21 21 20 19 19 19 20 21 21 22 22 22 23 22 21 21 21 21 20 20 20 21 20 20 20 19 18 18 18 18 18 19 19 19 20 20 19 19 19 19 19 19 19
22 21 20 20 21 21 21 21 20 19 19 20 20 21 22 22 22 22 22 21 20 20 21 21 21 21 21 21 21 21 20 19 18 18 19 19 19 19 20 19 20 20 20 20 20 20 20 20 20
22 22 20 20 19 20 21 21 19 19 19 20 20 21 20 20 20 20 21 20 20 20 21 21 21 21 21 21 21 21 20 19 18 19 20 20 20 19 19 20 20 20 21 22 22 21 21 21 21
23 23 22 21 21 20 21 22 21 19 19 20 20 20 20 19 20 20 20 20 20 21 21 22 22 22 21 21 20 19 19 18 18 19 20 20 19 19 19 20 20 20 21 22 22 21 21 21 21
23 23 22 22 21 20 20 20 20 19 20 20 20 20 20 20 20 20 20 20 20 21 21 22 22 22 21 21 20 19 18 18 18 18 19 19 19 19 19 20 21 20 20 21 22 22 21 22 22
23 23 23 23 23 21 19 21 21 20 19 20 20 20 20 19 19 20 20 20 20 20 21 20 20 20 20 20 19 19 20 19 18 18 19 18 19 20 20 21 21 21 20 20 21 21 21 21 22
24 24 24 23 23 23 21 21 22 21 20 21 21 21 21 20 20 19 19 20 20 20 20 20 20 20 20 20 19 19 20 19 19 19 19 19 19 19 20 21 21 20 19 19 19 20 20 21 21
Wind_Direction
211 209 203 190 161 138 212 227 226 236 254 301 339 53 73 59 55 23 9 12 9 4 4 2 1 359 358 359 7 17 28 28 30 33 34 42 53 55 52 53 73 94 104 108 117 127 123 122 128
222 218 207 196 145 205 239 238 225 240 258 297 345 18 50 23 8 351 348 349 354 352 351 353 348 344 347 355 359 1 10 16 12 11 14 15 15 29 46 55 81 108 122 112 131 142 137 134 135
222 220 215 208 199 209 240 248 249 270 286 299 321 343 351 345 348 337 333 343 347 344 342 341 337 334 336 340 343 344 349 359 353 351 353 350 323 272 265 224 155 150 152 158 155 160 146 138 138
222 218 220 213 221 235 248 258 257 267 285 296 304 311 328 330 327 329 329 338 334 333 336 338 333 326 325 323 329 331 334 337 338 338 331 330 319 279 263 240 197 190 172 181 190 176 172 157 160
220 222 222 223 233 247 253 264 262 269 284 297 299 296 313 318 316 322 323 326 326 324 324 328 327 324 317 311 315 319 326 325 326 329 321 313 303 271 245 228 215 212 204 207 206 198 191 188 189
222 227 225 229 242 248 250 259 262 274 288 290 288 290 295 307 309 311 314 319 323 321 320 317 319 320 318 309 306 307 313 314 312 310 303 293 277 254 230 218 215 216 214 215 216 208 208 204 208
225 229 231 238 250 252 255 256 256 270 280 287 286 283 288 305 312 311 310 312 316 319 318 309 311 315 315 321 304 297 298 300 299 297 292 276 267 252 235 221 219 218 220 219 221 216 211 220 223
233 236 241 248 253 255 257 258 259 264 273 281 288 286 293 304 310 310 306 308 313 314 312 308 305 308 310 313 316 310 299 295 292 290 288 273 262 253 239 230 228 223 222 225 228 226 221 227 236
238 237 243 247 250 255 256 257 260 263 267 276 286 286 287 295 301 305 306 306 308 306 305 303 299 300 303 305 306 309 300 293 288 285 282 270 262 253 244 236 234 235 232 230 230 231 231 233 240
239 237 241 247 250 254 256 256 259 263 268 274 278 278 285 292 296 298 301 303 303 301 299 298 295 295 298 299 298 297 297 291 284 280 279 269 260 256 249 239 232 233 232 235 236 237 234 234 238
243 238 246 251 252 255 257 258 262 268 269 271 274 278 285 293 297 299 299 300 300 300 298 293 291 291 292 291 290 289 290 284 279 278 271 263 261 259 252 241 235 236 238 241 242 243 240 240 243
247 247 250 253 255 256 256 258 263 267 267 272 275 277 283 291 297 299 300 300 299 298 297 292 293 291 287 287 287 286 285 283 279 272 268 263 261 255 249 248 249 243 241 245 244 243 243 246 250
247 250 253 255 256 257 256 257 262 266 265 267 268 273 279 285 294 295 295 296 295 296 295 293 294 291 288 285 285 284 279 276 276 274 270 263 257 253 249 249 248 247 248 251 250 247 244 248 253
249 252 256 257 258 257 259 261 263 267 268 267 266 269 275 279 286 290 293 293 294 294 294 294 295 294 289 284 283 283 279 276 273 272 269 265 258 255 250 247 248 249 250 251 250 247 245 247 251
252 255 258 260 262 261 260 262 266 268 268 269 268 270 273 275 279 283 287 288 290 291 292 293 294 292 288 285 283 283 281 276 271 269 266 262 259 257 250 248 249 250 253 251 249 247 246 247 249
254 257 260 262 262 262 261 262 264 268 267 266 267 269 270 272 274 278 281 284 286 288 290 291 293 290 287 286 284 285 283 280 273 266 264 260 259 257 252 249 248 250 254 253 249 247 246 247 249
256 255 255 261 262 263 262 261 264 268 268 268 269 268 267 269 270 273 278 283 284 285 287 289 286 287 285 284 283 284 285 279 274 269 263 259 257 254 250 249 249 251 254 253 250 248 247 246 247
253 253 255 258 263 264 263 263 265 267 270 271 271 270 269 268 269 272 277 281 284 287 287 286 286 285 286 286 284 284 284 278 271 270 267 260 257 253 252 251 249 251 250 250 250 248 246 245 247
252 253 255 257 262 264 263 263 265 268 270 272 271 269 270 268 267 270 274 278 282 285 286 287 287 286 286 285 283 284 284 277 271 268 268 262 256 255 253 250 249 249 248 249 249 248 247 247 248
255 256 257 260 262 263 264 266 267 268 270 270 269 269 268 267 266 269 273 277 280 283 285 286 286 286 286 284 283 282 280 276 273 269 266 263 258 259 254 251 249 247 248 248 249 248 246 245 248
256 257 258 259 262 263 267 270 269 268 268 268 269 269 270 268 267 270 272 274 277 280 280 280 283 285 285 284 283 280 277 276 273 270 267 262 260 257 259 255 250 249 245 248 248 247 245 243 246
257 258 258 259 261 264 267 268 268 268 268 267 268 268 270 271 271 271 273 274 275 277 277 276 278 282 285 285 283 279 277 277 273 268 267 265 261 259 259 257 253 244 244 243 244 247 245 244 246
255 257 259 259 260 261 264 265 266 269 269 267 266 268 271 271 273 274 276 275 275 275 275 275 277 279 282 285 283 278 277 274 272 269 267 263 261 257 258 254 249 245 243 242 243 246 246 246 247
258 260 261 261 262 262 262 263 264 267 269 268 267 269 270 271 272 274 276 275 274 273 275 275 276 277 279 282 281 280 277 274 271 268 266 262 260 259 260 257 247 246 245 244 246 246 247 247 246
258 261 262 262 261 264 262 262 264 267 270 270 270 270 270 271 271 271 271 272 273 274 274 275 275 276 278 279 279 278 276 273 268 265 264 261 261 259 259 254 249 247 245 245 247 247 245 245 246
258 258 257 257 258 262 264 263 266 268 269 270 270 271 272 272 272 270 269 270 273 275 275 274 275 276 276 276 277 276 273 269 266 266 264 262 260 260 257 250 249 248 247 248 248 247 244 245 245
257 257 256 257 260 261 263 264 266 266 267 267 269 270 273 275 274 272 272 271 272 273 274 272 273 274 275 274 274 270 267 266 266 266 263 261 258 258 254 250 249 249 249 249 246 245 245 245 245
253 255 256 256 258 261 265 267 265 265 267 267 268 272 275 275 274 274 272 273 273 273 273 271 271 272 272 271 269 266 267 270 268 266 262 260 258 256 255 251 249 250 248 245 243 245 247 244 244
254 254 254 255 255 256 262 266 265 266 267 269 271 273 274 276 275 272 271 271 271 272 273 270 269 271 271 272 271 269 270 271 269 267 262 260 260 257 254 252 250 250 249 246 244 244 246 245 246
252 252 253 255 256 256 258 266 268 270 268 268 270 272 273 273 273 273 271 270 271 274 273 270 271 272 274 272 269 270 268 268 269 269 267 266 261 261 256 252 249 248 249 248 247 249 249 246 246
Height
5902 5902 5903 5905 5907 5908 5908 5907 5906 5905 5905 5904 5904 5903 5903 5903 5903 5904 5901 5899 5899 5898 5896 5896 5895 5894 5893 5893 5892 5891 5890 5889 5889 5888 5887 5886 5886 5885 5885 5884 5883 5883 5883 5883 5883 5883 5883 5884 5884
5901 5902 5903 5905 5907 5908 5907 5906 5905 5905 5904 5903 5903 5902 5902 5901 5901 5900 5899 5898 5898 5897 5896 5895 5894 5894 5893 5892 5891 5890 5889 5889 5888 5887 5887 5886 5885 5885 5885 5884 5884 5883 5883 5883 5883 5883 5884 5884 5884
5900 5901 5903 5905 5906 5907 5906 5905 5904 5904 5903 5903 5902 5902 5901 5901 5900 5899 5898 5898 5897 5896 5895 5894 5894 5893 5892 5891 5890 5890 5889 5888 5887 5887 5886 5885 5885 5884 5884 5884 5884 5883 5883 5883 5883 5883 5884 5884 5884
5899 5901 5903 5905 5905 5904 5904 5904 5903 5903 5903 5902 5902 5901 5900 5900 5899 5898 5898 5897 5896 5895 5894 5893 5893 5892 5891 5890 5890 5889 5888 5887 5886 5885 5885 5885 5884 5884 5883 5883 5883 5883 5883 5883 5883 5883 5884 5884 5884
5899 5900 5903 5904 5903 5903 5903 5902 5902 5902 5902 5902 5901 5900 5900 5899 5898 5897 5897 5896 5895 5894 5893 5892 5892 5891 5890 5889 5888 5887 5887 5886 5885 5884 5884 5884 5883 5883 5883 5883 5883 5883 5883 5883 5883 5883 5883 5884 5884
5898 5900 5902 5903 5902 5901 5901 5901 5901 5901 5901 5901 5900 5900 5899 5898 5897 5897 5896 5895 5894 5892 5892 5891 5890 5890 5889 5888 5887 5886 5885 5884 5884 5883 5883 5882 5882 5882 5882 5882 5882 5882 5882 5882 5883 5883 5883 5883 5884
5897 5899 5900 5900 5900 5900 5900 5900 5900 5900 5900 5900 5899 5899 5898 5897 5896 5896 5895 5893 5892 5891 5890 5889 5889 5888 5887 5886 5884 5884 5884 5883 5883 5882 5882 5881 5881 5881 5881 5881 5881 5881 5881 5881 5882 5882 5883 5883 5883
5895 5898 5898 5898 5899 5899 5899 5898 5898 5899 5899 5898 5898 5898 5897 5896 5895 5894 5893 5892 5891 5890 5889 5888 5887 5887 5886 5885 5884 5883 5883 5882 5881 5881 5881 5880 5879 5879 5879 5879 5879 5880 5880 5880 5880 5881 5882 5882 5882
5893 5896 5896 5896 5897 5897 5896 5897 5897 5897 5897 5897 5896 5896 5896 5895 5894 5893 5892 5891 5890 5888 5887 5887 5886 5885 5884 5883 5882 5882 5881 5880 5880 5879 5879 5878 5878 5878 5878 5878 5878 5878 5878 5879 5879 5880 5880 5881 5881
5891 5894 5894 5893 5894 5894 5894 5894 5895 5895 5895 5895 5894 5894 5894 5893 5892 5892 5891 5889 5888 5887 5886 5885 5884 5883 5882 5882 5881 5880 5879 5878 5878 5877 5877 5877 5877 5876 5876 5876 5877 5877 5877 5877 5878 5878 5878 5879 5879
5889 5890 5890 5890 5891 5892 5892 5892 5892 5893 5893 5893 5892 5892 5891 5891 5890 5889 5889 5887 5886 5885 5884 5883 5882 5881 5880 5879 5878 5878 5877 5876 5876 5875 5875 5875 5875 5875 5875 5875 5875 5875 5875 5876 5876 5876 5877 5877 5877
5886 5887 5887 5888 5888 5889 5889 5889 5889 5890 5891 5890 5890 5889 5889 5888 5888 5887 5886 5885 5884 5883 5882 5881 5880 5879 5878 5877 5876 5875 5874 5874 5873 5873 5872 5872 5873 5873 5873 5873 5873 5873 5873 5874 5874 5875 5875 5876 5876
5883 5884 5884 5884 5885 5885 5886 5886 5886 5887 5887 5887 5887 5887 5886 5886 5885 5884 5884 5883 5882 5881 5880 5878 5877 5876 5875 5874 5874 5873 5872 5871 5871 5870 5869 5869 5870 5871 5871 5871 5871 5871 5872 5872 5873 5873 5874 5874 5874
5880 5880 5881 5881 5882 5882 5883 5884 5884 5884 5884 5884 5884 5884 5883 5883 5882 5882 5881 5880 5879 5878 5877 5876 5874 5873 5872 5871 5871 5870 5869 5868 5868 5867 5867 5867 5868 5868 5868 5869 5869 5869 5870 5870 5871 5871 5872 5872 5873
5877 5878 5878 5878 5878 5879 5881 5881 5881 5881 5880 5880 5880 5880 5880 5880 5879 5879 5878 5877 5876 5875 5874 5872 5871 5870 5868 5867 5867 5866 5865 5864 5864 5864 5864 5864 5865 5865 5866 5866 5867 5867 5867 5868 5868 5869 5869 5870 5870
5874 5875 5876 5875 5875 5876 5878 5879 5877 5877 5877 5877 5877 5877 5877 5876 5876 5875 5875 5874 5872 5871 5870 5869 5868 5866 5865 5864 5864 5863 5862 5860 5860 5860 5860 5861 5861 5862 5862 5863 5864 5865 5865 5865 5866 5866 5867 5868 5868
5870 5872 5872 5872 5871 5872 5874 5874 5873 5873 5872 5872 5872 5872 5872 5872 5872 5872 5871 5870 5869 5867 5866 5865 5864 5863 5861 5860 5860 5859 5858 5857 5856 5856 5856 5857 5858 5858 5859 5860 5861 5861 5862 5863 5863 5864 5864 5865 5865
5868 5868 5868 5868 5867 5868 5868 5869 5868 5868 5868 5868 5867 5867 5867 5868 5868 5867 5867 5866 5864 5863 5862 5861 5860 5859 5858 5856 5856 5855 5854 5853 5853 5852 5852 5853 5853 5854 5855 5856 5857 5858 5858 5859 5860 5861 5862 5862 5863
5862 5863 5863 5864 5863 5863 5863 5864 5864 5863 5863 5863 5862 5862 5862 5863 5863 5862 5862 5861 5860 5859 5858 5857 5856 5855 5853 5852 5852 5851 5850 5849 5849 5848 5848 5848 5849 5850 5851 5852 5853 5853 5855 5856 5857 5858 5859 5859 5860
5857 5858 5859 5859 5858 5858 5858 5858 5859 5858 5858 5857 5857 5857 5857 5857 5857 5857 5857 5856 5856 5855 5854 5853 5851 5850 5849 5848 5847 5846 5846 5845 5844 5844 5844 5844 5845 5845 5846 5847 5848 5849 5850 5852 5853 5854 5855 5856 5857
5852 5853 5854 5854 5853 5853 5853 5854 5853 5853 5852 5852 5852 5852 5852 5852 5852 5852 5852 5852 5851 5850 5849 5848 5847 5846 5845 5844 5843 5842 5841 5841 5840 5840 5840 5840 5840 5840 5841 5842 5843 5844 5846 5847 5848 5849 5851 5852 5853
5847 5847 5847 5847 5848 5849 5849 5849 5848 5847 5847 5847 5848 5847 5847 5847 5847 5847 5847 5846 5846 5845 5844 5843 5842 5841 5840 5839 5838 5837 5837 5836 5836 5835 5835 5835 5835 5836 5836 5837 5838 5840 5841 5842 5844 5845 5846 5847 5849
5841 5841 5842 5842 5842 5843 5843 5844 5844 5843 5842 5843 5843 5843 5842 5842 5842 5841 5841 5841 5840 5840 5839 5838 5837 5836 5835 5834 5833 5833 5832 5831 5831 5831 5831 5831 5831 5831 5832 5832 5834 5835 5836 5838 5839 5840 5841 5843 5844
5835 5836 5836 5836 5837 5838 5839 5839 5839 5838 5838 5838 5837 5837 5837 5837 5836 5836 5835 5835 5834 5834 5834 5833 5832 5831 5830 5829 5828 5828 5827 5826 5826 5826 5826 5826 5827 5827 5827 5828 5829 5830 5831 5833 5834 5835 5836 5838 5839
5830 5832 5833 5833 5833 5833 5833 5833 5833 5833 5832 5832 5832 5832 5831 5831 5831 5830 5830 5829 5829 5829 5828 5827 5827 5826 5825 5824 5823 5822 5822 5821 5821 5821 5821 5821 5822 5823 5823 5823 5824 5825 5826 5827 5828 5830 5831 5833 5834
5825 5827 5829 5829 5830 5829 5827 5827 5828 5827 5827 5826 5826 5826 5825 5825 5825 5825 5824 5824 5824 5823 5822 5822 5821 5820 5819 5818 5818 5817 5816 5816 5816 5816 5816 5816 5817 5817 5818 5818 5819 5820 5821 5822 5823 5824 5826 5827 5829
5818 5820 5822 5823 5822 5823 5822 5822 5822 5821 5821 5821 5821 5820 5820 5820 5819 5819 5818 5818 5818 5817 5817 5816 5815 5814 5814 5813 5812 5811 5811 5811 5811 5811 5811 5811 5811 5812 5813 5813 5814 5815 5816 5816 5817 5819 5820 5822 5824
5813 5814 5815 5816 5817 5818 5818 5817 5817 5816 5815 5815 5815 5815 5815 5814 5814 5813 5813 5812 5812 5811 5810 5809 5809 5808 5808 5807 5807 5806 5806 5806 5806 5806 5806 5806 5806 5807 5807 5808 5809 5810 5810 5810 5812 5813 5814 5816 5818
5807 5808 5808 5810 5811 5812 5813 5814 5811 5811 5810 5810 5810 5809 5809 5809 5808 5807 5807 5807 5806 5805 5804 5803 5802 5802 5801 5801 5801 5801 5801 5801 5801 5801 5801 5801 5801 5801 5802 5803 5803 5804 5805 5805 5806 5807 5809 5811 5813
5800 5801 5803 5804 5804 5805 5807 5809 5804 5805 5804 5804 5804 5804 5803 5803 5803 5802 5801 5801 5800 5799 5798 5797 5797 5796 5796 5796 5796 5796 5796 5796 5796 5796 5796 5796 5796 5795 5796 5797 5798 5799 5800 5800 5801 5802 5803 5805 5807